Voltar ao catálogo

TADA HUYANG 1

AtivoCiênciaSSO
NORAD 64091·PAYLOAD·🇨🇳 China
Este nome de satélite ainda não foi confirmado por fontes oficiais.

Lançado May 21, 2025 de Jiuquan Satellite Launch Center

Loading…

Próximas Passagens (próximas 24 horas)

TLE

AtualizadoSource: Space-Track

Época: Sep 14, 2026, 11:49 UTC

1 64091U 25108E   26257.49273047  .00010884  00000-0  41880-3 0  9999
2 64091  97.4605 334.1555 0012257  52.2757 307.9590 15.26491979 73066

Acompanhe TADA HUYANG 1 em tempo real com AllMySat

Download on the App Store